• In Hungary
  • List of Countries
  • For 7 days
  • Water Temperature
  • Satellite Maps
  • Weather Map
  • News
  • Weather Widgets
  • user-avatar
    Login

    Hourly Weather Pulau Batam

    Today, 26 May, Saturday

    Time Temperature Precipitation Wind Pressure Humidity
    00:00 +29°C° 0.2 mm 1 mps 751 mmHg 77%
    01:00 +29°C° 0 mm 1 mps 751 mmHg 80%
    02:00 +29°C° 1.1 mm 1 mps 751 mmHg 81%
    03:00 +28°C° 1.1 mm 1 mps 751 mmHg 82%
    04:00 +26°C° 1.1 mm 0 mps 751 mmHg 84%
    05:00 +27°C° 0.7 mm 0 mps 751 mmHg 83%
    06:00 +27°C° 0.7 mm 0 mps 751 mmHg 82%
    07:00 +27°C° 0 mm 0 mps 752 mmHg 78%
    08:00 +29°C° 0.5 mm 0 mps 752 mmHg 73%
    09:00 +31°C° 0.5 mm 0 mps 752 mmHg 67%
    10:00 +32°C° 0.5 mm 0 mps 752 mmHg 61%
    11:00 +33°C° 0 mm 0 mps 752 mmHg 57%
    12:00 +34°C° 0 mm 0 mps 752 mmHg 54%
    13:00 +35°C° 0 mm 1 mps 752 mmHg 55%
    14:00 +35°C° 0.1 mm 1 mps 751 mmHg 57%
    15:00 +34°C° 0.1 mm 1 mps 751 mmHg 58%
    16:00 +34°C° 0.1 mm 1 mps 750 mmHg 59%
    17:00 +33°C° 0 mm 1 mps 750 mmHg 64%
    18:00 +32°C° 0 mm 1 mps 751 mmHg 68%
    19:00 +30°C° 0 mm 1 mps 751 mmHg 76%
    20:00 +30°C° 0 mm 1 mps 752 mmHg 77%
    21:00 +29°C° 0 mm 1 mps 752 mmHg 78%
    22:00 +29°C° 0 mm 2 mps 752 mmHg 78%
    23:00 +29°C° 0.8 mm 2 mps 752 mmHg 80%

    Tomorrow, 27 May, Sunday

    Time Temperature Precipitation Wind Pressure Humidity
    00:00 +29°C° 0.8 mm 2 mps 752 mmHg 81%
    01:00 +29°C° 0.8 mm 3 mps 752 mmHg 82%
    02:00 +29°C° 0.7 mm 3 mps 752 mmHg 82%
    03:00 +28°C° 0.7 mm 3 mps 751 mmHg 81%
    04:00 +28°C° 0.7 mm 3 mps 751 mmHg 81%
    05:00 +28°C° 1.7 mm 3 mps 751 mmHg 82%
    06:00 +28°C° 1.7 mm 3 mps 752 mmHg 82%
    07:00 +28°C° 1.7 mm 3 mps 752 mmHg 82%
    08:00 +29°C° 2.3 mm 2 mps 752 mmHg 81%
    09:00 +29°C° 2.3 mm 2 mps 752 mmHg 80%
    10:00 +29°C° 2.3 mm 2 mps 753 mmHg 79%
    11:00 +29°C° 1.1 mm 2 mps 752 mmHg 79%
    12:00 +29°C° 1.1 mm 2 mps 752 mmHg 80%
    13:00 +29°C° 1.1 mm 1 mps 752 mmHg 80%
    14:00 +30°C° 0.3 mm 2 mps 751 mmHg 79%
    15:00 +30°C° 0.3 mm 2 mps 751 mmHg 77%
    16:00 +30°C° 0.3 mm 2 mps 751 mmHg 76%
    17:00 +29°C° 0 mm 2 mps 751 mmHg 78%
    18:00 +29°C° 0 mm 2 mps 751 mmHg 80%
    19:00 +28°C° 0 mm 2 mps 751 mmHg 82%
    20:00 +28°C° 0.1 mm 2 mps 752 mmHg 82%
    21:00 +28°C° 0.1 mm 2 mps 752 mmHg 82%
    22:00 +28°C° 0.1 mm 2 mps 753 mmHg 83%
    23:00 +28°C° 0.7 mm 1 mps 752 mmHg 84%

    Day after tomorrow, 28 May, Monday

    Time Temperature Precipitation Wind Pressure Humidity
    00:00 +28°C° 0.7 mm 1 mps 752 mmHg 84%
    01:00 +28°C° 0.7 mm 1 mps 752 mmHg 85%
    02:00 +28°C° 0.3 mm 1 mps 752 mmHg 85%
    03:00 +28°C° 0.3 mm 1 mps 751 mmHg 85%
    04:00 +28°C° 0.3 mm 2 mps 751 mmHg 84%
    05:00 +28°C° 0.6 mm 2 mps 751 mmHg 84%
    06:00 +28°C° 0.6 mm 2 mps 752 mmHg 83%
    07:00 +29°C° 0.6 mm 2 mps 752 mmHg 83%
    08:00 +30°C° 0.7 mm 3 mps 752 mmHg 78%
    09:00 +31°C° 0.7 mm 3 mps 753 mmHg 74%
    10:00 +33°C° 0.7 mm 3 mps 753 mmHg 69%
    11:00 +33°C° 0.1 mm 3 mps 753 mmHg 67%
    12:00 +33°C° 0.1 mm 3 mps 752 mmHg 66%
    13:00 +32°C° 0.1 mm 2 mps 752 mmHg 64%
    14:00 +32°C° 0.1 mm 2 mps 751 mmHg 67%
    15:00 +31°C° 0.1 mm 2 mps 751 mmHg 70%
    16:00 +30°C° 0.1 mm 2 mps 750 mmHg 73%
    17:00 +30°C° 0.1 mm 2 mps 751 mmHg 76%
    18:00 +29°C° 0.1 mm 2 mps 751 mmHg 78%
    19:00 +29°C° 0.1 mm 2 mps 751 mmHg 80%
    20:00 +29°C° 0.5 mm 2 mps 752 mmHg 80%
    21:00 +29°C° 0.5 mm 2 mps 752 mmHg 81%
    22:00 +29°C° 0.5 mm 2 mps 753 mmHg 81%
    23:00 +29°C° 0.7 mm 2 mps 753 mmHg 82%

    29 May, Tuesday

    Time Temperature Precipitation Wind Pressure Humidity
    00:00 +28°C° 0.7 mm 2 mps 752 mmHg 82%
    01:00 +28°C° 0.7 mm 2 mps 752 mmHg 83%
    02:00 +28°C° 1 mm 2 mps 751 mmHg 82%
    03:00 +28°C° 1 mm 2 mps 751 mmHg 82%
    04:00 +28°C° 1 mm 2 mps 751 mmHg 82%
    05:00 +28°C° 1.8 mm 2 mps 751 mmHg 82%
    06:00 +28°C° 1.8 mm 2 mps 751 mmHg 82%
    07:00 +29°C° 1.8 mm 3 mps 752 mmHg 82%
    08:00 +29°C° 1.9 mm 3 mps 752 mmHg 79%
    09:00 +30°C° 1.9 mm 3 mps 753 mmHg 77%
    10:00 +30°C° 1.9 mm 3 mps 753 mmHg 75%
    11:00 +30°C° 2.1 mm 3 mps 753 mmHg 77%
    12:00 +30°C° 2.1 mm 3 mps 752 mmHg 79%
    13:00 +29°C° 2.1 mm 3 mps 752 mmHg 81%
    14:00 +29°C° 0.4 mm 3 mps 751 mmHg 80%
    15:00 +30°C° 0.4 mm 3 mps 751 mmHg 78%
    16:00 +30°C° 0.4 mm 3 mps 751 mmHg 77%
    17:00 +29°C° 0.2 mm 3 mps 751 mmHg 78%
    18:00 +29°C° 0.2 mm 3 mps 751 mmHg 78%
    19:00 +28°C° 0.2 mm 3 mps 752 mmHg 79%
    20:00 +28°C° 0.1 mm 3 mps 752 mmHg 79%
    21:00 +28°C° 0.1 mm 2 mps 753 mmHg 78%
    22:00 +28°C° 0.1 mm 2 mps 753 mmHg 78%
    23:00 +28°C° 0.1 mm 2 mps 753 mmHg 77%

    30 May, Wednesday

    Time Temperature Precipitation Wind Pressure Humidity
    00:00 +28°C° 0.1 mm 2 mps 752 mmHg 75%
    01:00 +28°C° 0.1 mm 2 mps 752 mmHg 74%
    02:00 +28°C° 0 mm 2 mps 752 mmHg 73%
    03:00 +28°C° 0 mm 2 mps 751 mmHg 73%
    04:00 +28°C° 0 mm 1 mps 751 mmHg 72%
    05:00 +28°C° 0 mm 2 mps 751 mmHg 72%
    06:00 +29°C° 0 mm 2 mps 752 mmHg 72%
    07:00 +29°C° 0 mm 2 mps 752 mmHg 72%
    08:00 +30°C° 0 mm 2 mps 753 mmHg 70%
    09:00 +31°C° 0 mm 2 mps 753 mmHg 67%
    10:00 +32°C° 0 mm 2 mps 753 mmHg 64%
    11:00 +32°C° 0.6 mm 2 mps 753 mmHg 65%
    12:00 +32°C° 0.6 mm 2 mps 752 mmHg 66%
    13:00 +33°C° 0.6 mm 3 mps 752 mmHg 68%
    14:00 +31°C° 1.2 mm 3 mps 751 mmHg 70%
    15:00 +31°C° 1.2 mm 3 mps 751 mmHg 72%
    16:00 +30°C° 1.2 mm 3 mps 751 mmHg 74%
    17:00 +30°C° 0.4 mm 3 mps 751 mmHg 76%
    18:00 +29°C° 0.4 mm 3 mps 752 mmHg 78%
    19:00 +28°C° 0.4 mm 3 mps 753 mmHg 80%
    20:00 +28°C° 0.9 mm 3 mps 753 mmHg 82%
    21:00 +28°C° 0.9 mm 3 mps 753 mmHg 83%
    22:00 +28°C° 0.9 mm 3 mps 754 mmHg 85%
    23:00 +28°C° 1.6 mm 3 mps 753 mmHg 86%

    31 May, Thursday

    Time Temperature Precipitation Wind Pressure Humidity
    00:00 +27°C° 1.6 mm 3 mps 753 mmHg 88%
    01:00 +27°C° 1.6 mm 3 mps 753 mmHg 89%
    02:00 +27°C° 0.7 mm 3 mps 752 mmHg 89%
    03:00 +27°C° 0.7 mm 3 mps 752 mmHg 88%
    04:00 +27°C° 0.7 mm 3 mps 752 mmHg 87%
    05:00 +27°C° 0.1 mm 3 mps 752 mmHg 85%
    06:00 +28°C° 0.1 mm 3 mps 753 mmHg 83%
    07:00 +28°C° 0.1 mm 4 mps 753 mmHg 81%
    08:00 +28°C° 0 mm 4 mps 754 mmHg 79%
    09:00 +28°C° 0 mm 4 mps 754 mmHg 78%
    10:00 +29°C° 0 mm 4 mps 754 mmHg 77%
    11:00 +29°C° 0.2 mm 4 mps 754 mmHg 76%
    12:00 +29°C° 0.2 mm 4 mps 753 mmHg 75%
    13:00 +30°C° 0.2 mm 3 mps 753 mmHg 74%
    14:00 +29°C° 0.1 mm 3 mps 753 mmHg 74%
    15:00 +29°C° 0.1 mm 2 mps 752 mmHg 73%
    16:00 +29°C° 0.1 mm 2 mps 752 mmHg 73%
    17:00 +29°C° 0 mm 1 mps 752 mmHg 74%
    18:00 +29°C° 0 mm 1 mps 753 mmHg 74%
    19:00 +28°C° 0 mm 1 mps 753 mmHg 74%
    20:00 +28°C° 0 mm 1 mps 753 mmHg 74%
    21:00 +28°C° 0 mm 1 mps 753 mmHg 75%
    22:00 +28°C° 0 mm 1 mps 754 mmHg 75%
    23:00 +28°C° 0 mm 1 mps 753 mmHg 76%
    Show more